Imperial, CA

2:35 AM PDT on June 24, 2017 (GMT -0700)
Imperial County

Weather History for KIPL - September, 2012

Change the Weather History Date:

Friday, September 14, 2012

  Actual Average Record
Temperature  
Mean Temperature 88 °F -  
Max Temperature 105 °F 100 °F 112 °F (1984)
Min Temperature 75 °F 72 °F 60 °F (1952)
Cooling Degree Days 24    
Growing Degree Days 38 (Base 50)    
Moisture  
Dew Point 46 °F    
Average Humidity 24    
Maximum Humidity 53    
Minimum Humidity 9    
Precipitation  
Precipitation 0.00 in - - ()
Sea Level Pressure  
Sea Level Pressure 29.92 in    
Wind  
Wind Speed 5 mph (SSE)    
Max Wind Speed 8 mph    
Max Gust Speed 18 mph    
Visibility 10 miles    
Events      
Averages and records for this station are not official NWS values.
T = Trace of Precipitation, MM = Missing Value Source: NWS Daily Summary

Daily Weather History Graph

Daily Weather History Graph

Search for Another Location

Airport or City:

Trip Planner

Search our weather history database for the weather conditions in past years. The results will help you decide how hot, cold, wet, or windy it might be!

Date:

Astronomy

Sep. 14, 2012 Rise Set
Actual Time 6:25 AM PDT 6:49 PM PDT
Civil Twilight 6:00 AM PDT 7:13 PM PDT
Nautical Twilight 5:31 AM PDT 7:42 PM PDT
Astronomical Twilight 5:02 AM PDT 8:12 PM PDT
Moon 4:57 AM PDT (9/14) 5:47 PM PDT (9/14)
Length of Visible Light 13h 12m
Length of Day
12h 23m
Waning Crescent, 2% of the Moon is Illuminated
Sep 14
Waning Crescent
Sep 15
New
Sep 22
First Quarter
Sep 29
Full
Oct 8
Last Quarter

Hourly Weather History & Observations

Time (PDT) Temp. Heat Index Dew Point Humidity Pressure Visibility Wind Dir Wind Speed Gust Speed Precip Events Conditions
12:53 AM 84.0 °F - 50.0 °F 31% 29.87 in 10.0 mi WNW 6.9 mph - N/A   Clear
1:53 AM 84.9 °F - 48.0 °F 28% 29.87 in 10.0 mi NW 5.8 mph - N/A   Clear
2:53 AM 82.0 °F - 45.0 °F 27% 29.87 in 10.0 mi NW 5.8 mph - N/A   Clear
3:53 AM 82.0 °F - 48.0 °F 30% 29.88 in 10.0 mi North 5.8 mph - N/A   Clear
4:53 AM 80.1 °F - 50.0 °F 35% 29.90 in 10.0 mi Calm Calm - N/A   Clear
5:53 AM 75.0 °F - 57.0 °F 53% 29.92 in 10.0 mi West 3.5 mph - N/A   Clear
6:53 AM 77.0 °F - 55.9 °F 48% 29.95 in 10.0 mi WNW 4.6 mph - N/A   Clear
7:53 AM 82.9 °F 82.6 °F 57.9 °F 42% 29.97 in 10.0 mi West 4.6 mph - N/A   Clear
8:53 AM 91.0 °F 90.0 °F 57.9 °F 33% 29.98 in 10.0 mi Variable 3.5 mph - N/A   Clear
9:53 AM 93.9 °F 92.2 °F 55.9 °F 28% 29.99 in 10.0 mi Variable 5.8 mph - N/A   Clear
10:53 AM 98.1 °F 96.1 °F 54.0 °F 23% 29.99 in 10.0 mi East 8.1 mph - N/A   Clear
11:53 AM 99.0 °F 96.5 °F 53.1 °F 21% 29.98 in 10.0 mi Variable 6.9 mph - N/A   Clear
12:53 PM 100.9 °F - 51.1 °F 19% 29.96 in 10.0 mi Variable 5.8 mph - N/A   Clear
1:53 PM 100.9 °F - 46.0 °F 15% 29.93 in 10.0 mi Variable 3.5 mph - N/A   Clear
2:53 PM 102.9 °F - 36.0 °F 10% 29.90 in 10.0 mi East 5.8 mph - N/A   Clear
3:53 PM 102.9 °F - 33.1 °F 9% 29.88 in 10.0 mi ESE 8.1 mph 18.4 mph N/A   Clear
4:53 PM 102.9 °F - 33.1 °F 9% 29.88 in 10.0 mi East 5.8 mph - N/A   Clear
5:53 PM 102.0 °F - 33.1 °F 9% 29.87 in 10.0 mi SE 6.9 mph - N/A   Clear
6:53 PM 99.0 °F - 37.9 °F 12% 29.88 in 10.0 mi SSE 8.1 mph - N/A   Clear
7:53 PM 95.0 °F - 36.0 °F 13% 29.89 in 10.0 mi South 5.8 mph - N/A   Clear
8:53 PM 90.0 °F - 39.0 °F 17% 29.91 in 10.0 mi South 5.8 mph - N/A   Clear
9:53 PM 90.0 °F - 37.9 °F 16% 29.92 in 10.0 mi South 8.1 mph - N/A   Clear
10:53 PM 88.0 °F - 39.9 °F 18% 29.93 in 10.0 mi SSE 3.5 mph - N/A   Clear
11:53 PM 82.4 °F - 42.8 °F 25% 29.94 in 10.0 mi Calm Calm - N/A   Clear